Regional Weather Roundup
Issued by NWS

Home | Current Version | Previous Version | Graphics & Text | Print | Product List | Glossary On
Versions: 1 2 3 4 5 6 7 8 9 10 11 12 13 14 15 16 17 18 19 20 21 22 23 24 25 26 27 28 29 30 31 32 33 34 35 36 37 38 39 40 41 42 43 44 45 46 47 48 49 50
000
ASUS43 KIND 301059
RWRIN

WEATHER ROUNDUP FOR INDIANA
NATIONAL WEATHER SERVICE INDIANAPOLIS IN
700 AM EDT SUN AUG 30 2015

NOTE: "FAIR" INDICATES FEW OR NO CLOUDS BELOW 12,000 FEET WITH NO
SIGNIFICANT WEATHER AND/OR OBSTRUCTIONS TO VISIBILITY.

* - STATION DOES NOT REPORT WEATHER SUCH AS PRECIPITATION OR FOG.

+ - STATION NOT QUALITY CONTROLLED BY THE NATIONAL WEATHER SERVICE.
    USE DATA WITH CAUTION...ESPECIALLY DEWPOINT AND RELATIVE
    HUMIDITY OBSERVATIONS.

INZ001>003-010>013-019-020-301200-
NORTHWEST INDIANA

CITY           SKY/WX    TMP DP  RH WIND       PRES   REMARKS
GARY /AIRPORT/ CLOUDY    64  63  94 N6        30.05R FOG
KNOX *+        CLOUDY    66  66 100 CALM      30.03R
MONTICELLO +   CLEAR     66  66 100 S5        30.03R FOG

$$

LMZ046-743>745-301200-
SOUTHERN LAKE MICHIGAN

STATION/POSITION TIME  TEMP    WIND        PRES    WAVE
                       AIR SEA DIR/SP/G            HT
                 (UTC) (F)     (DEG/KT/KT) (MB)    (FT)
BURNS HARBOR     1000   67     320/  5/  8 1017.3R
MICHIGAN CITY    1000   67     300/  7/  8   N/A
5NW MICH CITY    1000   68 70  340/  6/  8   N/A     1

$$

INZ004-005-014>016-021>024-301200-
NORTH CENTRAL INDIANA

CITY           SKY/WX    TMP DP  RH WIND       PRES   REMARKS
GOSHEN         CLOUDY    67  65  93 CALM      30.05R FOG
PERU/GRISSOM   CLEAR     65  64  97 S5        30.05R
SOUTH BEND     FOG       67  67 100 S5        30.05R VSB 1/4

$$

INZ006>009-017-018-025>027-301200-
NORTHEAST INDIANA

CITY           SKY/WX    TMP DP  RH WIND       PRES   REMARKS
ANGOLA *+      CLOUDY    66  57  72 S3        30.05R
FORT WAYNE     PTCLDY    65  64  97 S3        30.06R FOG

$$

INZ028-029-035-036-043>045-051>053-301200-
WEST CENTRAL INDIANA

CITY           SKY/WX    TMP DP  RH WIND       PRES   REMARKS
CRAWFORDSVL +  CLEAR     58  58 100 CALM      30.06R FOG
GREENCASTLE +  PTCLDY    64  61  88 CALM      30.06S FOG
LAFAYETTE      CLEAR     63  63 100 CALM      30.03S FOG
TERRE HAUTE    FOG       61  60  97 CALM      30.04S VSB 3/4

$$

INZ030>032-037>040-046>048-054>057-064-065-301200-
CENTRAL INDIANA

CITY           SKY/WX    TMP DP  RH WIND       PRES   REMARKS
FRANKFORT +    FOG      N/A N/A N/A CALM      30.07R VSB 1/4
INDIANAPOLIS   MOCLDY    70  67  90 S3        30.05
-EAGLE CREEK   PTCLDY    69  67  93 CALM      30.05R
KOKOMO *+      CLEAR     63  55  77 S6        30.06R
MT COMFORT *+  MOCLDY    68 N/A N/A CALM      30.07R
SHELBYVILLE    CLOUDY    71  68  90 S6        30.06R

$$

INZ033-034-041-042-049-050-058-059-301200-
EAST CENTRAL INDIANA

CITY           SKY/WX    TMP DP  RH WIND       PRES   REMARKS
MUNCIE         MOCLDY    68  66  93 S5        30.07R

$$

INZ060-061-067>069-081>083-085>088-301200-
SOUTHWEST INDIANA

CITY           SKY/WX    TMP DP  RH WIND       PRES   REMARKS
EVANSVILLE     MOCLDY    71  69  93 SE3       30.06R FOG
HUNTINGBURG *+ PTCLDY    70  64  83 SE6       30.07R

$$

INZ062-063-066-070>080-084-089>092-301200-
SOUTH CENTRAL AND SOUTHEAST INDIANA

CITY           SKY/WX    TMP DP  RH WIND       PRES   REMARKS
BLOOMINGTON    MOCLDY    69  67  93 CALM      30.06R
MADISON *+     MOCLDY    66  64  94 CALM      30.11R
SEYMOUR +      PTCLDY    68  66  94 CALM      30.07R

$$



USA.gov is the U.S. government's official web portal to all federal, state and local government web resources and services.